Location: *
(49.7115°N, 15.0136°E)
Time: 00:03:02
(UTC+00:00)

STARLINK-74 - Pass Details

Date: 27 February 2020
Orbit: 529 x 530 km, 53.0° (Epoch: 04 April)

Event Time Altitude Azimuth Distance (km) Brightness Sun altitude
Rises 17:17:56 0° 268° (W) 2,668 9.8 -7.2°
Reaches altitude 10° 17:20:11 10° 272° (W) 1,780 8.0 -7.6°
Maximum altitude 17:24:09 56° 351° (N) 640 4.0 -8.2°
Enters shadow 17:28:01 11° 71° (ENE) 1,737 5.6 -8.8°
